Location: Góry Miechowskie
(50.3599°N, 20.1803°E)
Time: 15:44:01
(UTC+00:00)

deb Explorer IX - Pass Details

Date: 22 September 2024
Orbit: 504 x 830 km, 38.7° (Epoch: 04 October)

Event Time Altitude Azimuth Distance (km) Brightness Sun altitude
Rises 19:10:55 0° 258° (WSW) 3,366 ? -24.2°
Reaches altitude 10° 19:14:03 10° 243° (WSW) 2,456 ? -24.6°
Enters shadow 19:18:03 20° 200° (SSW) 1,859 ? -25.1°
